North Island, CA

2:47 AM PDT on August 18, 2017 (GMT -0700)
North Island Naval Air Station

Weather History for KNZY - December, 2011

Change the Weather History Date:

Thursday, December 8, 2011

  Actual Average Record
Temperature  
Mean Temperature 56 °F -  
Max Temperature 66 °F 62 °F 75 °F (2001)
Min Temperature 45 °F 47 °F 39 °F (1998)
Degree Days  
Heating Degree Days 10    
Growing Degree Days 6 (Base 50)    
Moisture  
Dew Point 39 °F    
Average Humidity 57    
Maximum Humidity 75    
Minimum Humidity 26    
Precipitation  
Precipitation 0.00 in - - ()
Sea Level Pressure  
Sea Level Pressure 30.07 in    
Wind  
Wind Speed 2 mph (NW)    
Max Wind Speed 12 mph    
Max Gust Speed -    
Visibility 10 miles    
Events      
Averages and records for this station are not official NWS values.
T = Trace of Precipitation, MM = Missing Value Source: NWS Daily Summary

Daily Weather History Graph

Daily Weather History Graph

Search for Another Location

Airport or City:

Trip Planner

Search our weather history database for the weather conditions in past years. The results will help you decide how hot, cold, wet, or windy it might be!

Date:

Astronomy

Dec. 08, 2011 Rise Set
Actual Time 6:38 AM PST 4:42 PM PST
Civil Twilight 6:11 AM PST 5:09 PM PST
Nautical Twilight 5:40 AM PST 5:40 PM PST
Astronomical Twilight 5:10 AM PST 6:10 PM PST
Moon 3:24 PM PST (12/8) 4:56 AM PST (12/8)
Length of Visible Light 10h 58m
Length of Day
10h 04m
Waxing Gibbous, 97% of the Moon is Illuminated
Dec 8
Waxing Gibbous
Dec 10
Full
Dec 17
Last Quarter
Dec 24
New
Dec 31
First Quarter

Hourly Weather History & Observations

Time (PST) Temp. Dew Point Humidity Pressure Visibility Wind Dir Wind Speed Gust Speed Precip Events Conditions
12:52 AM 48.9 °F 39.9 °F 71% 30.07 in 9.0 mi Calm Calm - N/A   Partly Cloudy
1:52 AM 46.0 °F 37.9 °F 73% 30.06 in 10.0 mi Calm Calm - N/A   Mostly Cloudy
2:52 AM 48.0 °F 39.0 °F 71% 30.06 in 10.0 mi Calm Calm - N/A   Mostly Cloudy
3:52 AM 48.0 °F 34.0 °F 58% 30.06 in 10.0 mi ESE 4.6 mph - N/A   Mostly Cloudy
4:08 AM - - N/A% - - North - - N/A   Unknown
4:52 AM 46.0 °F 32.0 °F 58% 30.05 in 10.0 mi Calm Calm - N/A   Scattered Clouds
5:52 AM 45.0 °F 30.9 °F 58% 30.07 in 10.0 mi Calm Calm - N/A   Scattered Clouds
6:52 AM 45.0 °F 30.9 °F 58% 30.09 in 10.0 mi Calm Calm - N/A   Partly Cloudy
7:52 AM 50.0 °F 33.1 °F 52% 30.10 in 10.0 mi Calm Calm - N/A   Scattered Clouds
8:52 AM 55.0 °F 35.1 °F 47% 30.11 in 10.0 mi Calm Calm - N/A   Mostly Cloudy
9:52 AM 60.1 °F 36.0 °F 41% 30.11 in 10.0 mi Calm Calm - N/A   Mostly Cloudy
10:00 AM - - N/A% - - North - - N/A   Unknown
10:52 AM 63.0 °F 32.0 °F 31% 30.09 in 10.0 mi Calm Calm - N/A   Mostly Cloudy
11:52 AM 64.0 °F 28.0 °F 26% 30.07 in 10.0 mi SSW 5.8 mph - N/A   Scattered Clouds
12:52 PM 66.0 °F 30.9 °F 27% 30.05 in 10.0 mi WNW 5.8 mph - N/A   Scattered Clouds
1:52 PM 64.9 °F 39.0 °F 39% 30.03 in 10.0 mi NW 8.1 mph - N/A   Scattered Clouds
2:52 PM 64.0 °F 44.1 °F 48% 30.03 in 10.0 mi NW 11.5 mph - N/A   Scattered Clouds
3:52 PM 64.0 °F 46.0 °F 52% 30.03 in 10.0 mi NNW 10.4 mph - N/A   Partly Cloudy
4:52 PM 60.1 °F 45.0 °F 57% 30.04 in 10.0 mi NW 5.8 mph - N/A   Partly Cloudy
5:52 PM 57.9 °F 45.0 °F 62% 30.05 in 10.0 mi Calm Calm - N/A   Partly Cloudy
6:52 PM 55.0 °F 46.0 °F 72% 30.06 in 10.0 mi NNW 3.5 mph - N/A   Partly Cloudy
7:52 PM 54.0 °F 46.0 °F 75% 30.08 in 10.0 mi Calm Calm - N/A   Partly Cloudy
8:52 PM 53.1 °F 45.0 °F 74% 30.09 in 10.0 mi Calm Calm - N/A   Partly Cloudy
9:52 PM 51.1 °F 43.0 °F 74% 30.10 in 9.0 mi Calm Calm - N/A   Partly Cloudy
10:52 PM 53.1 °F 45.0 °F 74% 30.11 in 8.0 mi Calm Calm - N/A   Partly Cloudy
11:52 PM 51.1 °F 43.0 °F 74% 30.10 in 8.0 mi Calm Calm - N/A   Partly Cloudy